EN

Hourly Weather Acapetagua

Today, 27 November, Friday

Time Temperature Precipitation Wind Pressure Humidity
00:00 +12°C° 0 mm 0 mps 547 mmHg 47%
01:00 +11°C° 0 mm 0 mps 547 mmHg 48%
02:00 +11°C° 0 mm 0 mps 547 mmHg 48%
03:00 +10°C° 0 mm 0 mps 546 mmHg 49%
04:00 +10°C° 0 mm 0 mps 546 mmHg 50%
05:00 +10°C° 0 mm 0 mps 546 mmHg 50%
06:00 +11°C° 0 mm 0 mps 548 mmHg 46%
07:00 +13°C° 0 mm 0 mps 549 mmHg 41%
08:00 +15°C° 0 mm 0 mps 550 mmHg 37%
09:00 +18°C° 0 mm 1 mps 550 mmHg 31%
10:00 +20°C° 0 mm 1 mps 551 mmHg 25%
11:00 +20°C° 0 mm 2 mps 551 mmHg 20%
12:00 +21°C° 0 mm 2 mps 551 mmHg 19%
13:00 +21°C° 0 mm 2 mps 550 mmHg 18%
14:00 +21°C° 0 mm 2 mps 550 mmHg 17%
15:00 +20°C° 0 mm 2 mps 549 mmHg 22%
16:00 +19°C° 0 mm 1 mps 548 mmHg 26%
17:00 +16°C° 0 mm 1 mps 547 mmHg 30%
18:00 +16°C° 0 mm 1 mps 548 mmHg 33%
19:00 +15°C° 0 mm 1 mps 548 mmHg 35%
20:00 +14°C° 0 mm 1 mps 548 mmHg 38%
21:00 +14°C° 0 mm 1 mps 548 mmHg 38%
22:00 +13°C° 0 mm 1 mps 547 mmHg 39%
23:00 +13°C° 0 mm 1 mps 547 mmHg 39%

Tomorrow, 28 November, Saturday

Time Temperature Precipitation Wind Pressure Humidity
00:00 +11°C° 0 mm 0 mps 547 mmHg 39%
01:00 +11°C° 0 mm 0 mps 546 mmHg 40%
02:00 +10°C° 0 mm 0 mps 546 mmHg 40%
03:00 +10°C° 0 mm 0 mps 546 mmHg 40%
04:00 +10°C° 0 mm 0 mps 546 mmHg 39%
05:00 +10°C° 0 mm 0 mps 546 mmHg 39%
06:00 +11°C° 0 mm 0 mps 547 mmHg 36%
07:00 +13°C° 0 mm 0 mps 548 mmHg 33%
08:00 +14°C° 0 mm 0 mps 549 mmHg 31%
09:00 +16°C° 0 mm 0 mps 550 mmHg 27%
10:00 +20°C° 0 mm 1 mps 550 mmHg 23%
11:00 +22°C° 0 mm 1 mps 551 mmHg 19%
12:00 +22°C° 0 mm 1 mps 551 mmHg 18%
13:00 +22°C° 0 mm 1 mps 550 mmHg 18%
14:00 +23°C° 0 mm 1 mps 550 mmHg 18%
15:00 +21°C° 0 mm 1 mps 549 mmHg 23%
16:00 +19°C° 0 mm 1 mps 548 mmHg 29%
17:00 +16°C° 0 mm 1 mps 547 mmHg 35%
18:00 +15°C° 0 mm 1 mps 547 mmHg 39%
19:00 +15°C° 0 mm 1 mps 547 mmHg 43%
20:00 +14°C° 0 mm 1 mps 548 mmHg 47%
21:00 +13°C° 0 mm 1 mps 547 mmHg 45%
22:00 +13°C° 0 mm 1 mps 547 mmHg 44%
23:00 +12°C° 0 mm 0 mps 547 mmHg 43%

Day after tomorrow, 29 November, Sunday

Time Temperature Precipitation Wind Pressure Humidity
00:00 +11°C° 0 mm 0 mps 547 mmHg 42%
01:00 +11°C° 0 mm 0 mps 546 mmHg 42%
02:00 +10°C° 0 mm 0 mps 546 mmHg 42%
03:00 +10°C° 0 mm 0 mps 546 mmHg 42%
04:00 +10°C° 0 mm 0 mps 546 mmHg 42%
05:00 +10°C° 0 mm 0 mps 546 mmHg 42%
06:00 +11°C° 0 mm 0 mps 547 mmHg 39%
07:00 +13°C° 0 mm 0 mps 548 mmHg 37%
08:00 +14°C° 0 mm 0 mps 549 mmHg 34%
09:00 +18°C° 0 mm 1 mps 550 mmHg 31%
10:00 +19°C° 0 mm 1 mps 551 mmHg 28%
11:00 +20°C° 0 mm 2 mps 551 mmHg 25%
12:00 +20°C° 0 mm 2 mps 551 mmHg 25%
13:00 +21°C° 0 mm 2 mps 550 mmHg 25%
14:00 +21°C° 0 mm 2 mps 550 mmHg 25%
15:00 +19°C° 0 mm 2 mps 549 mmHg 33%
16:00 +18°C° 0 mm 2 mps 549 mmHg 40%
17:00 +16°C° 0 mm 2 mps 548 mmHg 48%
18:00 +15°C° 0 mm 1 mps 548 mmHg 53%
19:00 +14°C° 0 mm 1 mps 548 mmHg 58%
20:00 +13°C° 0 mm 1 mps 548 mmHg 63%
21:00 +13°C° 0 mm 1 mps 548 mmHg 64%
22:00 +13°C° 0 mm 1 mps 548 mmHg 65%
23:00 +12°C° 0 mm 1 mps 548 mmHg 66%

30 November, Monday

Time Temperature Precipitation Wind Pressure Humidity
00:00 +12°C° 0 mm 1 mps 548 mmHg 68%
01:00 +11°C° 0 mm 1 mps 547 mmHg 71%
02:00 +11°C° 0 mm 1 mps 547 mmHg 74%
03:00 +10°C° 0 mm 1 mps 547 mmHg 76%
04:00 +10°C° 0 mm 1 mps 547 mmHg 78%
05:00 +9°C° 0 mm 0 mps 547 mmHg 80%
06:00 +11°C° 0 mm 1 mps 548 mmHg 76%
07:00 +12°C° 0 mm 1 mps 549 mmHg 72%
08:00 +13°C° 0 mm 1 mps 549 mmHg 68%
09:00 +15°C° 0 mm 1 mps 550 mmHg 62%
10:00 +16°C° 0 mm 1 mps 550 mmHg 56%
11:00 +18°C° 0 mm 2 mps 551 mmHg 49%
12:00 +17°C° 0 mm 2 mps 550 mmHg 50%
13:00 +17°C° 0 mm 2 mps 550 mmHg 51%
14:00 +17°C° 0 mm 2 mps 549 mmHg 52%
15:00 +16°C° 0 mm 2 mps 549 mmHg 57%
16:00 +15°C° 0 mm 2 mps 548 mmHg 63%
17:00 +14°C° 0 mm 2 mps 548 mmHg 69%
18:00 +13°C° 0 mm 2 mps 548 mmHg 70%
19:00 +13°C° 0 mm 1 mps 548 mmHg 72%
20:00 +12°C° 0 mm 1 mps 548 mmHg 74%
21:00 +12°C° 0 mm 1 mps 548 mmHg 74%
22:00 +12°C° 0 mm 1 mps 548 mmHg 75%
23:00 +11°C° 0 mm 1 mps 548 mmHg 76%

1 December, Tuesday

Time Temperature Precipitation Wind Pressure Humidity
00:00 +11°C° 0 mm 1 mps 547 mmHg 78%
01:00 +10°C° 0 mm 1 mps 547 mmHg 80%
02:00 +10°C° 0 mm 1 mps 546 mmHg 82%
03:00 +10°C° 0 mm 1 mps 546 mmHg 83%
04:00 +10°C° 0 mm 1 mps 546 mmHg 84%
05:00 +9°C° 0 mm 1 mps 546 mmHg 84%
06:00 +10°C° 0 mm 1 mps 547 mmHg 79%
07:00 +11°C° 0 mm 1 mps 547 mmHg 74%
08:00 +13°C° 0 mm 1 mps 548 mmHg 69%
09:00 +14°C° 0 mm 1 mps 548 mmHg 63%
10:00 +15°C° 0 mm 2 mps 549 mmHg 57%
11:00 +17°C° 0 mm 2 mps 549 mmHg 51%
12:00 +17°C° 0 mm 2 mps 548 mmHg 50%
13:00 +17°C° 0 mm 2 mps 548 mmHg 49%
14:00 +18°C° 0 mm 3 mps 547 mmHg 48%
15:00 +16°C° 0 mm 3 mps 547 mmHg 55%
16:00 +14°C° 0 mm 3 mps 546 mmHg 61%
17:00 +14°C° 0 mm 2 mps 546 mmHg 68%
18:00 +13°C° 0 mm 2 mps 546 mmHg 72%
19:00 +12°C° 0 mm 2 mps 546 mmHg 76%
20:00 +11°C° 0 mm 1 mps 546 mmHg 81%
21:00 +11°C° 0 mm 1 mps 546 mmHg 81%
22:00 +11°C° 0 mm 1 mps 545 mmHg 81%
23:00 +10°C° 0 mm 1 mps 545 mmHg 81%

2 December, Wednesday

Time Temperature Precipitation Wind Pressure Humidity
00:00 +10°C° 0 mm 1 mps 545 mmHg 81%
01:00 +10°C° 0 mm 1 mps 545 mmHg 81%
02:00 +9°C° 0 mm 1 mps 544 mmHg 81%
03:00 +9°C° 0 mm 1 mps 544 mmHg 80%
04:00 +9°C° 0 mm 1 mps 544 mmHg 79%
05:00 +9°C° 0 mm 1 mps 544 mmHg 78%
06:00 +10°C° 0 mm 1 mps 546 mmHg 71%
07:00 +11°C° 0 mm 1 mps 547 mmHg 63%
08:00 +13°C° 0 mm 1 mps 548 mmHg 56%
09:00 +14°C° 0 mm 1 mps 549 mmHg 49%
10:00 +16°C° 0 mm 1 mps 549 mmHg 42%
11:00 +19°C° 0 mm 1 mps 550 mmHg 35%
12:00 +20°C° 0 mm 1 mps 550 mmHg 34%
13:00 +20°C° 0 mm 1 mps 549 mmHg 34%
14:00 +19°C° 0 mm 2 mps 549 mmHg 34%
15:00 +17°C° 0 mm 2 mps 548 mmHg 42%
16:00 +16°C° 0 mm 2 mps 548 mmHg 51%
17:00 +14°C° 0 mm 2 mps 547 mmHg 60%
18:00 +13°C° 0 mm 2 mps 547 mmHg 63%
19:00 +12°C° 0 mm 2 mps 547 mmHg 67%
20:00 +11°C° 0 mm 1 mps 547 mmHg 71%
21:00 +11°C° 0 mm 1 mps 547 mmHg 72%
22:00 +11°C° 0 mm 1 mps 547 mmHg 72%
23:00 +11°C° 0 mm 1 mps 547 mmHg 72%
Show more

We Need Your Consent

Meteoprog and our Service Providers may store and access personal data such as cookies, device identifiers or other similar technologies on your device and process such data to personalise content and ads, as well as provide social media features and to analyse the traffic.

  • Store and/or access information on your device

    Cookies, device identifiers or other information can be stored or accessed on your device for the purposes indicated above.

  • Personalised ads and content, ad and content measurement, audience insights, and products development

    Ads and content can be personalised based on a profile. More data can be added to better personalise ads and content. Ad and content performance can be measured. Insights about the audience who saw the ads and content can be derived. Such data can be used to develop or improve user’s experience, systems and software.

By clicking ‘I Agree’ you will allow the use of indicated cookies, device identifiers, web beacons or other similar technologies. Your settings can be changed in the browser on your device.

For certain purposes, legitimate interests may be relied on, rather than consent. You can read more about this in our Privacy and Cookie Policy.